Year,Month,Day,Hour,Minute,Value (Times are PST for temperature in C)
2009,07,27,00,00,20.20
2009,07,27,00,01,20.20
2009,07,27,00,02,20.20
2009,07,27,00,03,20.20
2009,07,27,00,04,20.20
2009,07,27,00,05,20.20
2009,07,27,00,06,20.20
2009,07,27,00,07,20.10
2009,07,27,00,08,20.10
2009,07,27,00,09,20.10
2009,07,27,00,10,20.10
2009,07,27,00,11,20.00
2009,07,27,00,12,19.90
2009,07,27,00,13,19.90
2009,07,27,00,14,19.90
2009,07,27,00,15,19.90
2009,07,27,00,16,19.80
2009,07,27,00,17,19.80
2009,07,27,00,18,19.80
2009,07,27,00,19,19.70
2009,07,27,00,20,19.70
2009,07,27,00,21,19.70
2009,07,27,00,22,19.70
2009,07,27,00,23,19.70
2009,07,27,00,24,19.70
2009,07,27,00,25,19.70
2009,07,27,00,26,19.70
2009,07,27,00,27,19.80
2009,07,27,00,28,19.80
2009,07,27,00,29,19.80
2009,07,27,00,30,19.90
2009,07,27,00,31,19.90
2009,07,27,00,32,20.00
2009,07,27,00,33,20.10
2009,07,27,00,34,20.20
2009,07,27,00,35,20.20
2009,07,27,00,36,20.20
2009,07,27,00,37,20.20
2009,07,27,00,38,20.20
2009,07,27,00,39,20.20
2009,07,27,00,40,20.30
2009,07,27,00,41,20.30
2009,07,27,00,42,20.30
2009,07,27,00,43,20.30
2009,07,27,00,44,20.30
2009,07,27,00,45,20.20
2009,07,27,00,46,20.20
2009,07,27,00,47,20.20
2009,07,27,00,48,20.20
2009,07,27,00,49,20.20
2009,07,27,00,50,20.20
2009,07,27,00,51,20.20
2009,07,27,00,52,20.10
2009,07,27,00,53,20.10
2009,07,27,00,54,20.20
2009,07,27,00,55,20.20
2009,07,27,00,56,20.20
2009,07,27,00,57,20.20
2009,07,27,00,58,20.20
2009,07,27,00,59,20.20
2009,07,27,01,00,20.10
2009,07,27,01,01,20.10
2009,07,27,01,02,20.00
2009,07,27,01,03,19.90
2009,07,27,01,04,19.90
2009,07,27,01,05,19.80
2009,07,27,01,06,19.80
2009,07,27,01,07,19.80
2009,07,27,01,08,19.70
2009,07,27,01,09,19.70
2009,07,27,01,10,19.60
2009,07,27,01,11,19.60
2009,07,27,01,12,19.60
2009,07,27,01,13,19.60
2009,07,27,01,14,19.50
2009,07,27,01,15,19.50
2009,07,27,01,16,19.50
2009,07,27,01,17,19.50
2009,07,27,01,18,19.40
2009,07,27,01,19,19.40
2009,07,27,01,20,19.40
2009,07,27,01,21,19.40
2009,07,27,01,22,19.40
2009,07,27,01,23,19.40
2009,07,27,01,24,19.40
2009,07,27,01,25,19.40
2009,07,27,01,26,19.40
2009,07,27,01,27,19.40
2009,07,27,01,28,19.40
2009,07,27,01,29,19.40
2009,07,27,01,30,19.30
2009,07,27,01,31,19.30
2009,07,27,01,32,19.30
2009,07,27,01,33,19.30
2009,07,27,01,34,19.30
2009,07,27,01,35,19.30
2009,07,27,01,36,19.30
2009,07,27,01,37,19.30
2009,07,27,01,38,19.30
2009,07,27,01,39,19.30
2009,07,27,01,40,19.30
2009,07,27,01,41,19.30
2009,07,27,01,42,19.20
2009,07,27,01,43,19.20
2009,07,27,01,44,19.20
2009,07,27,01,45,19.20
2009,07,27,01,46,19.10
2009,07,27,01,47,19.20
2009,07,27,01,48,19.20
2009,07,27,01,49,19.20
2009,07,27,01,50,19.20
2009,07,27,01,51,19.20
2009,07,27,01,52,19.20
2009,07,27,01,53,19.20
2009,07,27,01,54,19.10
2009,07,27,01,55,19.10
2009,07,27,01,56,19.10
2009,07,27,01,57,19.20
2009,07,27,01,58,19.20
2009,07,27,01,59,19.20
2009,07,27,02,00,19.20
2009,07,27,02,01,19.20
2009,07,27,02,02,19.20
2009,07,27,02,03,19.20
2009,07,27,02,04,19.20
2009,07,27,02,05,19.20
2009,07,27,02,06,19.10
2009,07,27,02,07,19.10
2009,07,27,02,08,19.10
2009,07,27,02,09,19.10
2009,07,27,02,10,19.10
2009,07,27,02,11,19.10
2009,07,27,02,12,19.10
2009,07,27,02,13,19.10
2009,07,27,02,14,19.10
2009,07,27,02,15,19.10
2009,07,27,02,16,19.10
2009,07,27,02,17,19.10
2009,07,27,02,18,19.10
2009,07,27,02,19,19.10
2009,07,27,02,20,19.10
2009,07,27,02,21,19.10
2009,07,27,02,22,19.10
2009,07,27,02,23,19.10
2009,07,27,02,24,19.10
2009,07,27,02,25,19.10
2009,07,27,02,26,19.10
2009,07,27,02,27,19.10
2009,07,27,02,28,19.10
2009,07,27,02,29,19.10
2009,07,27,02,30,19.00
2009,07,27,02,31,18.90
2009,07,27,02,32,18.90
2009,07,27,02,33,18.90
2009,07,27,02,34,18.80
2009,07,27,02,35,18.70
2009,07,27,02,36,18.70
2009,07,27,02,37,18.60
2009,07,27,02,38,18.60
2009,07,27,02,39,18.50
2009,07,27,02,40,18.50
2009,07,27,02,41,18.40
2009,07,27,02,42,18.40
2009,07,27,02,43,18.30
2009,07,27,02,44,18.30
2009,07,27,02,45,18.20
2009,07,27,02,46,18.20
2009,07,27,02,47,18.20
2009,07,27,02,48,18.20
2009,07,27,02,49,18.20
2009,07,27,02,50,18.20
2009,07,27,02,51,18.10
2009,07,27,02,52,18.10
2009,07,27,02,53,18.10
2009,07,27,02,54,18.10
2009,07,27,02,55,18.00
2009,07,27,02,56,17.90
2009,07,27,02,57,17.90
2009,07,27,02,58,17.90
2009,07,27,02,59,17.90
2009,07,27,03,00,17.90
2009,07,27,03,01,17.90
2009,07,27,03,02,17.80
2009,07,27,03,03,17.80
2009,07,27,03,04,17.80
2009,07,27,03,05,17.80
2009,07,27,03,06,17.80
2009,07,27,03,07,17.70
2009,07,27,03,08,17.70
2009,07,27,03,09,17.70
2009,07,27,03,10,17.70
2009,07,27,03,11,17.60
2009,07,27,03,12,17.60
2009,07,27,03,13,17.60
2009,07,27,03,14,17.60
2009,07,27,03,15,17.50
2009,07,27,03,16,17.50
2009,07,27,03,17,17.50
2009,07,27,03,18,17.40
2009,07,27,03,19,17.30
2009,07,27,03,20,17.30
2009,07,27,03,21,17.20
2009,07,27,03,22,17.20
2009,07,27,03,23,17.10
2009,07,27,03,24,17.00
2009,07,27,03,25,16.90
2009,07,27,03,26,16.90
2009,07,27,03,27,16.80
2009,07,27,03,28,16.80
2009,07,27,03,29,16.70
2009,07,27,03,30,16.70
2009,07,27,03,31,16.70
2009,07,27,03,32,16.60
2009,07,27,03,33,16.60
2009,07,27,03,34,16.60
2009,07,27,03,35,16.60
2009,07,27,03,36,16.60
2009,07,27,03,37,16.60
2009,07,27,03,38,16.60
2009,07,27,03,39,16.60
2009,07,27,03,40,16.60
2009,07,27,03,41,16.60
2009,07,27,03,42,16.60
2009,07,27,03,43,16.60
2009,07,27,03,44,16.60
2009,07,27,03,45,16.60
2009,07,27,03,46,16.60
2009,07,27,03,47,16.60
2009,07,27,03,48,16.60
2009,07,27,03,49,16.70
2009,07,27,03,50,16.70
2009,07,27,03,51,16.70
2009,07,27,03,52,16.70
2009,07,27,03,53,16.70
2009,07,27,03,54,16.70
2009,07,27,03,55,16.70
2009,07,27,03,56,16.70
2009,07,27,03,57,16.70
2009,07,27,03,58,16.70
2009,07,27,03,59,16.70
2009,07,27,04,00,16.70
2009,07,27,04,01,16.70
2009,07,27,04,02,16.70
2009,07,27,04,03,16.70
2009,07,27,04,04,16.70
2009,07,27,04,05,16.70
2009,07,27,04,06,16.70
2009,07,27,04,07,16.70
2009,07,27,04,08,16.70
2009,07,27,04,09,16.60
2009,07,27,04,10,16.40
2009,07,27,04,11,16.30
2009,07,27,04,12,16.20
2009,07,27,04,13,16.10
2009,07,27,04,14,16.10
2009,07,27,04,15,16.10
2009,07,27,04,16,16.00
2009,07,27,04,17,15.90
2009,07,27,04,18,15.90
2009,07,27,04,19,15.80
2009,07,27,04,20,15.80
2009,07,27,04,21,15.80
2009,07,27,04,22,15.80
2009,07,27,04,23,15.80
2009,07,27,04,24,15.80
2009,07,27,04,25,15.80
2009,07,27,04,26,15.80
2009,07,27,04,27,15.80
2009,07,27,04,28,15.70
2009,07,27,04,29,15.70
2009,07,27,04,30,15.70
2009,07,27,04,31,15.60
2009,07,27,04,32,15.60
2009,07,27,04,33,15.50
2009,07,27,04,34,15.50
2009,07,27,04,35,15.50
2009,07,27,04,36,15.40
2009,07,27,04,37,15.40
2009,07,27,04,38,15.30
2009,07,27,04,39,15.30
2009,07,27,04,40,15.30
2009,07,27,04,41,15.30
2009,07,27,04,42,15.30
2009,07,27,04,43,15.30
2009,07,27,04,44,15.30
2009,07,27,04,45,15.20
2009,07,27,04,46,15.20
2009,07,27,04,47,15.20
2009,07,27,04,48,15.20
2009,07,27,04,49,15.20
2009,07,27,04,50,15.20
2009,07,27,04,51,15.20
2009,07,27,04,52,15.20
2009,07,27,04,53,15.20
2009,07,27,04,54,15.10
2009,07,27,04,55,15.10
2009,07,27,04,56,15.10
2009,07,27,04,57,15.10
2009,07,27,04,58,15.10
2009,07,27,04,59,15.10
2009,07,27,05,00,15.10
2009,07,27,05,01,15.10
2009,07,27,05,02,15.10
2009,07,27,05,03,15.10
2009,07,27,05,04,15.10
2009,07,27,05,05,15.10
2009,07,27,05,06,15.10
2009,07,27,05,07,15.10
2009,07,27,05,08,15.10
2009,07,27,05,09,15.10
2009,07,27,05,10,15.10
2009,07,27,05,11,15.10
2009,07,27,05,12,15.10
2009,07,27,05,13,15.10
2009,07,27,05,14,15.10
2009,07,27,05,15,15.10
2009,07,27,05,16,15.10
2009,07,27,05,17,15.10
2009,07,27,05,18,15.10
2009,07,27,05,19,15.10
2009,07,27,05,20,15.10
2009,07,27,05,21,15.10
2009,07,27,05,22,15.10
2009,07,27,05,23,15.10
2009,07,27,05,24,15.10
2009,07,27,05,25,15.10
2009,07,27,05,26,15.10
2009,07,27,05,27,15.10
2009,07,27,05,28,15.10
2009,07,27,05,29,15.20
2009,07,27,05,30,15.20
2009,07,27,05,31,15.20
2009,07,27,05,32,15.30
2009,07,27,05,33,15.30
2009,07,27,05,34,15.30
2009,07,27,05,35,15.40
2009,07,27,05,36,15.40
2009,07,27,05,37,15.50
2009,07,27,05,38,15.60
2009,07,27,05,39,15.60
2009,07,27,05,40,15.70
2009,07,27,05,41,15.80
2009,07,27,05,42,15.90
2009,07,27,05,43,16.00
2009,07,27,05,44,16.10
2009,07,27,05,45,16.20
2009,07,27,05,46,16.30
2009,07,27,05,47,16.40
2009,07,27,05,48,16.50
2009,07,27,05,49,16.60
2009,07,27,05,50,16.70
2009,07,27,05,51,16.70
2009,07,27,05,52,16.70
2009,07,27,05,53,16.80
2009,07,27,05,54,16.80
2009,07,27,05,55,16.90
2009,07,27,05,56,17.00
2009,07,27,05,57,17.00
2009,07,27,05,58,17.10
2009,07,27,05,59,17.10
2009,07,27,06,00,17.20
2009,07,27,06,01,17.20
2009,07,27,06,02,17.20
2009,07,27,06,03,17.30
2009,07,27,06,04,17.30
2009,07,27,06,05,17.30
2009,07,27,06,06,17.30
2009,07,27,06,07,17.40
2009,07,27,06,08,17.40
2009,07,27,06,09,17.40
2009,07,27,06,10,17.40
2009,07,27,06,11,17.40
2009,07,27,06,12,17.50
2009,07,27,06,13,17.50
2009,07,27,06,14,17.50
2009,07,27,06,15,17.60
2009,07,27,06,16,17.60
2009,07,27,06,17,17.60
2009,07,27,06,18,17.70
2009,07,27,06,19,17.70
2009,07,27,06,20,17.80
2009,07,27,06,21,17.80
2009,07,27,06,22,17.80
2009,07,27,06,23,17.90
2009,07,27,06,24,17.90
2009,07,27,06,25,17.90
2009,07,27,06,26,17.90
2009,07,27,06,27,17.90
2009,07,27,06,28,17.90
2009,07,27,06,29,17.90
2009,07,27,06,30,17.90
2009,07,27,06,31,18.00
2009,07,27,06,32,18.10
2009,07,27,06,33,18.10
2009,07,27,06,34,18.10
2009,07,27,06,35,18.20
2009,07,27,06,36,18.20
2009,07,27,06,37,18.20
2009,07,27,06,38,18.20
2009,07,27,06,39,18.30
2009,07,27,06,40,18.30
2009,07,27,06,41,18.40
2009,07,27,06,42,18.50
2009,07,27,06,43,18.50
2009,07,27,06,44,18.60
2009,07,27,06,45,18.70
2009,07,27,06,46,18.80
2009,07,27,06,47,18.90
2009,07,27,06,48,19.00
2009,07,27,06,49,19.10
2009,07,27,06,50,19.10
2009,07,27,06,51,19.20
2009,07,27,06,52,19.30
2009,07,27,06,53,19.40
2009,07,27,06,54,19.40
2009,07,27,06,55,19.50
2009,07,27,06,56,19.50
2009,07,27,06,57,19.50
2009,07,27,06,58,19.60
2009,07,27,06,59,19.60
2009,07,27,07,00,19.70
2009,07,27,07,01,19.70
2009,07,27,07,02,19.70
2009,07,27,07,03,19.80
2009,07,27,07,04,19.80
2009,07,27,07,05,19.90
2009,07,27,07,06,19.90
2009,07,27,07,07,19.90
2009,07,27,07,08,19.90
2009,07,27,07,09,20.10
2009,07,27,07,10,20.20
2009,07,27,07,11,20.30
2009,07,27,07,12,20.40
2009,07,27,07,13,20.50
2009,07,27,07,14,20.70
2009,07,27,07,15,20.80
2009,07,27,07,16,21.00
2009,07,27,07,17,21.00
2009,07,27,07,18,21.20
2009,07,27,07,19,21.30
2009,07,27,07,20,21.30
2009,07,27,07,21,21.30
2009,07,27,07,22,21.40
2009,07,27,07,23,21.40
2009,07,27,07,24,21.50
2009,07,27,07,25,21.60
2009,07,27,07,26,21.60
2009,07,27,07,27,21.60
2009,07,27,07,28,21.70
2009,07,27,07,29,21.70
2009,07,27,07,30,21.80
2009,07,27,07,31,21.80
2009,07,27,07,32,21.80
2009,07,27,07,33,21.90
2009,07,27,07,34,21.90
2009,07,27,07,35,21.90
2009,07,27,07,36,21.80
2009,07,27,07,37,21.80
2009,07,27,07,38,21.80
2009,07,27,07,39,21.80
2009,07,27,07,40,21.70
2009,07,27,07,41,21.70
2009,07,27,07,42,21.70
2009,07,27,07,43,21.70
2009,07,27,07,44,21.70
2009,07,27,07,45,21.80
2009,07,27,07,46,21.70
2009,07,27,07,47,21.70
2009,07,27,07,48,21.70
2009,07,27,07,49,21.70
2009,07,27,07,50,21.70
2009,07,27,07,51,21.70
2009,07,27,07,52,21.70
2009,07,27,07,53,21.80
2009,07,27,07,54,21.80
2009,07,27,07,55,21.90
2009,07,27,07,56,21.90
2009,07,27,07,57,21.90
2009,07,27,07,58,22.00
2009,07,27,07,59,22.00
2009,07,27,08,00,22.00
2009,07,27,08,01,22.00
2009,07,27,08,02,22.10
2009,07,27,08,03,22.10
2009,07,27,08,04,22.20
2009,07,27,08,05,22.20
2009,07,27,08,06,22.30
2009,07,27,08,07,22.40
2009,07,27,08,08,22.40
2009,07,27,08,09,22.50
2009,07,27,08,10,22.50
2009,07,27,08,11,22.60
2009,07,27,08,12,22.60
2009,07,27,08,13,22.60
2009,07,27,08,14,22.60
2009,07,27,08,15,22.60
2009,07,27,08,16,22.60
2009,07,27,08,17,22.60
2009,07,27,08,18,22.60
2009,07,27,08,19,22.50
2009,07,27,08,20,22.50
2009,07,27,08,21,22.50
2009,07,27,08,22,22.40
2009,07,27,08,23,22.40
2009,07,27,08,24,22.40
2009,07,27,08,25,22.50
2009,07,27,08,26,22.60
2009,07,27,08,27,22.60
2009,07,27,08,28,22.60
2009,07,27,08,29,22.70
2009,07,27,08,30,22.80
2009,07,27,08,31,22.80
2009,07,27,08,32,22.80
2009,07,27,08,33,22.70
2009,07,27,08,34,22.60
2009,07,27,08,35,22.60
2009,07,27,08,36,22.60
2009,07,27,08,37,22.50
2009,07,27,08,38,22.50
2009,07,27,08,39,22.50
2009,07,27,08,40,22.50
2009,07,27,08,41,22.50
2009,07,27,08,42,22.40
2009,07,27,08,43,22.30
2009,07,27,08,44,22.20
2009,07,27,08,45,22.20
2009,07,27,08,46,22.10
2009,07,27,08,47,22.00
2009,07,27,08,48,21.80
2009,07,27,08,49,21.80
2009,07,27,08,50,21.70
2009,07,27,08,51,21.70
2009,07,27,08,52,21.70
2009,07,27,08,53,21.70
2009,07,27,08,54,21.80
2009,07,27,08,55,21.90
2009,07,27,08,56,21.90
2009,07,27,08,57,22.00
2009,07,27,08,58,22.00
2009,07,27,08,59,22.10
2009,07,27,09,00,22.20
2009,07,27,09,01,22.20
2009,07,27,09,02,22.20
2009,07,27,09,03,22.10
2009,07,27,09,04,22.10
2009,07,27,09,05,22.00
2009,07,27,09,06,21.90
2009,07,27,09,07,21.80
2009,07,27,09,08,21.80
2009,07,27,09,09,21.80
2009,07,27,09,10,21.80
2009,07,27,09,11,21.80
2009,07,27,09,12,21.80
2009,07,27,09,13,21.80
2009,07,27,09,14,21.90
2009,07,27,09,15,21.90
2009,07,27,09,16,21.90
2009,07,27,09,17,21.90
2009,07,27,09,18,21.80
2009,07,27,09,19,21.80
2009,07,27,09,20,21.90
2009,07,27,09,21,21.80
2009,07,27,09,22,21.70
2009,07,27,09,23,21.70
2009,07,27,09,24,21.70
2009,07,27,09,25,21.70
2009,07,27,09,26,21.80
2009,07,27,09,27,21.90
2009,07,27,09,28,22.00
2009,07,27,09,29,21.90
2009,07,27,09,30,22.00
2009,07,27,09,31,22.00
2009,07,27,09,32,22.10
2009,07,27,09,33,22.20
2009,07,27,09,34,22.20
2009,07,27,09,35,22.20
2009,07,27,09,36,22.20
2009,07,27,09,37,22.10
2009,07,27,09,38,22.10
2009,07,27,09,39,22.20
2009,07,27,09,40,22.10
2009,07,27,09,41,22.10
2009,07,27,09,42,22.10
2009,07,27,09,43,22.20
2009,07,27,09,44,22.30
2009,07,27,09,45,22.30
2009,07,27,09,46,22.30
2009,07,27,09,47,22.40
2009,07,27,09,48,22.60
2009,07,27,09,49,22.70
2009,07,27,09,50,22.90
2009,07,27,09,51,23.10
2009,07,27,09,52,23.10
2009,07,27,09,53,23.10
2009,07,27,09,54,23.10
2009,07,27,09,55,23.10
2009,07,27,09,56,23.20
2009,07,27,09,57,23.30
2009,07,27,09,58,23.30
2009,07,27,09,59,23.30
2009,07,27,10,00,23.40
2009,07,27,10,01,23.40
2009,07,27,10,02,23.40
2009,07,27,10,03,23.40
2009,07,27,10,04,23.40
2009,07,27,10,05,23.40
2009,07,27,10,06,23.50
2009,07,27,10,07,23.60
2009,07,27,10,08,23.60
2009,07,27,10,09,23.60
2009,07,27,10,10,23.70
2009,07,27,10,11,23.70
2009,07,27,10,12,23.70
2009,07,27,10,13,23.90
2009,07,27,10,14,23.90
2009,07,27,10,15,23.90
2009,07,27,10,16,23.80
2009,07,27,10,17,23.80
2009,07,27,10,18,23.70
2009,07,27,10,19,23.80
2009,07,27,10,20,23.80
2009,07,27,10,21,23.70
2009,07,27,10,22,23.70
2009,07,27,10,23,23.60
2009,07,27,10,24,23.40
2009,07,27,10,25,23.30
2009,07,27,10,26,23.30
2009,07,27,10,27,23.30
2009,07,27,10,28,23.30
2009,07,27,10,29,23.40
2009,07,27,10,30,23.40
2009,07,27,10,31,23.50
2009,07,27,10,32,23.60
2009,07,27,10,33,23.60
2009,07,27,10,34,23.70
2009,07,27,10,35,23.70
2009,07,27,10,36,23.70
2009,07,27,10,37,23.60
2009,07,27,10,38,23.40
2009,07,27,10,39,23.40
2009,07,27,10,40,23.30
2009,07,27,10,41,23.30
2009,07,27,10,42,23.40
2009,07,27,10,43,23.60
2009,07,27,10,44,23.50
2009,07,27,10,45,23.40
2009,07,27,10,46,23.40
2009,07,27,10,47,23.60
2009,07,27,10,48,23.40
2009,07,27,10,49,23.50
2009,07,27,10,50,23.70
2009,07,27,10,51,23.70
2009,07,27,10,52,23.70
2009,07,27,10,53,23.60
2009,07,27,10,54,23.60
2009,07,27,10,55,23.60
2009,07,27,10,56,23.50
2009,07,27,10,57,23.40
2009,07,27,10,58,23.50
2009,07,27,10,59,23.50
2009,07,27,11,00,23.30
2009,07,27,11,01,23.30
2009,07,27,11,02,23.40
2009,07,27,11,03,23.40
2009,07,27,11,04,23.40
2009,07,27,11,05,23.40
2009,07,27,11,06,23.50
2009,07,27,11,07,23.60
2009,07,27,11,08,23.70
2009,07,27,11,09,23.60
2009,07,27,11,10,23.60
2009,07,27,11,11,23.60
2009,07,27,11,12,23.50
2009,07,27,11,13,23.60
2009,07,27,11,14,23.60
2009,07,27,11,15,23.60
2009,07,27,11,16,23.60
2009,07,27,11,17,23.70
2009,07,27,11,18,23.70
2009,07,27,11,19,23.70
2009,07,27,11,20,23.50
2009,07,27,11,21,23.40
2009,07,27,11,22,23.30
2009,07,27,11,23,23.30
2009,07,27,11,24,23.30
2009,07,27,11,25,23.30
2009,07,27,11,26,23.10
2009,07,27,11,27,23.00
2009,07,27,11,28,22.90
2009,07,27,11,29,22.90
2009,07,27,11,30,22.90
2009,07,27,11,31,22.90
2009,07,27,11,32,22.90
2009,07,27,11,33,22.90
2009,07,27,11,34,22.90
2009,07,27,11,35,23.00
2009,07,27,11,36,23.10
2009,07,27,11,37,23.30
2009,07,27,11,38,23.30
2009,07,27,11,39,23.30
2009,07,27,11,40,23.30
2009,07,27,11,41,23.30
2009,07,27,11,42,23.40
2009,07,27,11,43,23.50
2009,07,27,11,44,23.60
2009,07,27,11,45,23.70
2009,07,27,11,46,23.70
2009,07,27,11,47,23.70
2009,07,27,11,48,23.70
2009,07,27,11,49,23.70
2009,07,27,11,50,23.80
2009,07,27,11,51,23.90
2009,07,27,11,52,24.00
2009,07,27,11,53,24.10
2009,07,27,11,54,24.10
2009,07,27,11,55,24.10
2009,07,27,11,56,24.20
2009,07,27,11,57,24.20
2009,07,27,11,58,24.40
2009,07,27,11,59,24.50
2009,07,27,12,00,24.60
2009,07,27,12,01,24.50
2009,07,27,12,02,24.50
2009,07,27,12,03,24.40
2009,07,27,12,04,24.40
2009,07,27,12,05,24.30
2009,07,27,12,06,24.40
2009,07,27,12,07,24.40
2009,07,27,12,08,24.30
2009,07,27,12,09,24.40
2009,07,27,12,10,24.30
2009,07,27,12,11,24.30
2009,07,27,12,12,24.40
2009,07,27,12,13,24.30
2009,07,27,12,14,24.30
2009,07,27,12,15,24.30
2009,07,27,12,16,24.30
2009,07,27,12,17,24.20
2009,07,27,12,18,24.20
2009,07,27,12,19,24.10
2009,07,27,12,20,24.20
2009,07,27,12,21,24.30
2009,07,27,12,22,24.40
2009,07,27,12,23,24.40
2009,07,27,12,24,24.50
2009,07,27,12,25,24.50
2009,07,27,12,26,24.50
2009,07,27,12,27,24.50
2009,07,27,12,28,24.40
2009,07,27,12,29,24.30
2009,07,27,12,30,24.30
2009,07,27,12,31,24.40
2009,07,27,12,32,24.50
2009,07,27,12,33,24.40
2009,07,27,12,34,24.50
2009,07,27,12,35,24.60
2009,07,27,12,36,24.60
2009,07,27,12,37,24.60
2009,07,27,12,38,24.60
2009,07,27,12,39,24.60
2009,07,27,12,40,24.60
2009,07,27,12,41,24.70
2009,07,27,12,42,24.70
2009,07,27,12,43,24.80
2009,07,27,12,44,24.90
2009,07,27,12,45,25.00
2009,07,27,12,46,25.00
2009,07,27,12,47,25.00
2009,07,27,12,48,25.10
2009,07,27,12,49,25.30
2009,07,27,12,50,25.50
2009,07,27,12,51,25.50
2009,07,27,12,52,25.50
2009,07,27,12,53,25.50
2009,07,27,12,54,25.60
2009,07,27,12,55,25.60
2009,07,27,12,56,25.60
2009,07,27,12,57,25.60
2009,07,27,12,58,25.60
2009,07,27,12,59,25.70
2009,07,27,13,00,25.70
2009,07,27,13,01,25.70
2009,07,27,13,02,25.70
2009,07,27,13,03,25.90
2009,07,27,13,04,26.00
2009,07,27,13,05,26.00
2009,07,27,13,06,25.90
2009,07,27,13,07,25.90
2009,07,27,13,08,25.80
2009,07,27,13,09,25.80
2009,07,27,13,10,25.80
2009,07,27,13,11,25.90
2009,07,27,13,12,26.00
2009,07,27,13,13,26.10
2009,07,27,13,14,26.10
2009,07,27,13,15,26.00
2009,07,27,13,16,26.10
2009,07,27,13,17,26.10
2009,07,27,13,18,26.10
2009,07,27,13,19,26.20
2009,07,27,13,20,26.30
2009,07,27,13,21,26.40
2009,07,27,13,22,26.40
2009,07,27,13,23,26.40
2009,07,27,13,24,26.40
2009,07,27,13,25,26.40
2009,07,27,13,26,26.60
2009,07,27,13,27,26.60
2009,07,27,13,28,26.60
2009,07,27,13,29,26.70
2009,07,27,13,30,26.70
2009,07,27,13,31,26.60
2009,07,27,13,32,26.60
2009,07,27,13,33,26.60
2009,07,27,13,34,26.60
2009,07,27,13,35,26.60
2009,07,27,13,36,26.60
2009,07,27,13,37,26.50
2009,07,27,13,38,26.50
2009,07,27,13,39,26.60
2009,07,27,13,40,26.60
2009,07,27,13,41,26.60
2009,07,27,13,42,26.60
2009,07,27,13,43,26.50
2009,07,27,13,44,26.50
2009,07,27,13,45,26.60
2009,07,27,13,46,26.60
2009,07,27,13,47,26.60
2009,07,27,13,48,26.50
2009,07,27,13,49,26.40
2009,07,27,13,50,26.50
2009,07,27,13,51,26.60
2009,07,27,13,52,26.60
2009,07,27,13,53,26.60
2009,07,27,13,54,26.50
2009,07,27,13,55,26.40
2009,07,27,13,56,26.30
2009,07,27,13,57,26.40
2009,07,27,13,58,26.40
2009,07,27,13,59,26.30
2009,07,27,14,00,26.40
2009,07,27,14,01,26.50
2009,07,27,14,02,26.60
2009,07,27,14,03,26.60
2009,07,27,14,04,26.60
2009,07,27,14,05,26.70
2009,07,27,14,06,26.70
2009,07,27,14,07,26.80
2009,07,27,14,08,26.80
2009,07,27,14,09,26.80
2009,07,27,14,10,26.60
2009,07,27,14,11,26.60
2009,07,27,14,12,26.60
2009,07,27,14,13,26.60
2009,07,27,14,14,26.60
2009,07,27,14,15,26.60
2009,07,27,14,16,26.60
2009,07,27,14,17,26.60
2009,07,27,14,18,26.60
2009,07,27,14,19,26.60
2009,07,27,14,20,26.60
2009,07,27,14,21,26.60
2009,07,27,14,22,26.60
2009,07,27,14,23,26.50
2009,07,27,14,24,26.40
2009,07,27,14,25,26.40
2009,07,27,14,26,26.30
2009,07,27,14,27,26.20
2009,07,27,14,28,26.20
2009,07,27,14,29,26.20
2009,07,27,14,30,26.20
2009,07,27,14,31,26.20
2009,07,27,14,32,26.20
2009,07,27,14,33,26.20
2009,07,27,14,34,26.30
2009,07,27,14,35,26.20
2009,07,27,14,36,26.20
2009,07,27,14,37,26.20
2009,07,27,14,38,26.10
2009,07,27,14,39,26.10
2009,07,27,14,40,26.10
2009,07,27,14,41,26.10
2009,07,27,14,42,26.30
2009,07,27,14,43,26.40
2009,07,27,14,44,26.40
2009,07,27,14,45,26.50
2009,07,27,14,46,26.60
2009,07,27,14,47,26.60
2009,07,27,14,48,26.60
2009,07,27,14,49,26.60
2009,07,27,14,50,26.60
2009,07,27,14,51,26.60
2009,07,27,14,52,26.60
2009,07,27,14,53,26.60
2009,07,27,14,54,26.40
2009,07,27,14,55,26.40
2009,07,27,14,56,26.40
2009,07,27,14,57,26.30
2009,07,27,14,58,26.20
2009,07,27,14,59,26.20
2009,07,27,15,00,26.30
2009,07,27,15,01,26.40
2009,07,27,15,02,26.40
2009,07,27,15,03,26.50
2009,07,27,15,04,26.60
2009,07,27,15,05,26.60
2009,07,27,15,06,26.50
2009,07,27,15,07,26.60
2009,07,27,15,08,26.60
2009,07,27,15,09,26.60
2009,07,27,15,10,26.60
2009,07,27,15,11,26.70
2009,07,27,15,12,26.80
2009,07,27,15,13,26.70
2009,07,27,15,14,26.60
2009,07,27,15,15,26.60
2009,07,27,15,16,26.60
2009,07,27,15,17,26.60
2009,07,27,15,18,26.60
2009,07,27,15,19,26.60
2009,07,27,15,20,26.60
2009,07,27,15,21,26.60
2009,07,27,15,22,26.60
2009,07,27,15,23,26.60
2009,07,27,15,24,26.60
2009,07,27,15,25,26.60
2009,07,27,15,26,26.70
2009,07,27,15,27,26.60
2009,07,27,15,28,26.60
2009,07,27,15,29,26.70
2009,07,27,15,30,26.70
2009,07,27,15,31,26.60
2009,07,27,15,32,26.60
2009,07,27,15,33,26.60
2009,07,27,15,34,26.70
2009,07,27,15,35,26.80
2009,07,27,15,36,26.80
2009,07,27,15,37,26.90
2009,07,27,15,38,26.90
2009,07,27,15,39,26.90
2009,07,27,15,40,26.90
2009,07,27,15,41,26.90
2009,07,27,15,42,26.90
2009,07,27,15,43,26.90
2009,07,27,15,44,26.90
2009,07,27,15,45,26.90
2009,07,27,15,46,26.90
2009,07,27,15,47,26.90
2009,07,27,15,48,26.90
2009,07,27,15,49,26.90
2009,07,27,15,50,26.90
2009,07,27,15,51,26.90
2009,07,27,15,52,27.00
2009,07,27,15,53,27.00
2009,07,27,15,54,26.90
2009,07,27,15,55,26.90
2009,07,27,15,56,26.90
2009,07,27,15,57,27.00
2009,07,27,15,58,27.10
2009,07,27,15,59,26.90
2009,07,27,16,00,26.90
2009,07,27,16,01,26.90
2009,07,27,16,02,27.00
2009,07,27,16,03,27.10
2009,07,27,16,04,27.00
2009,07,27,16,05,26.90
2009,07,27,16,06,27.00
2009,07,27,16,07,27.20
2009,07,27,16,08,27.20
2009,07,27,16,09,27.30
2009,07,27,16,10,27.30
2009,07,27,16,11,27.30
2009,07,27,16,12,27.40
2009,07,27,16,13,27.40
2009,07,27,16,14,27.40
2009,07,27,16,15,27.40
2009,07,27,16,16,27.40
2009,07,27,16,17,27.40
2009,07,27,16,18,27.40
2009,07,27,16,19,27.40
2009,07,27,16,20,27.30
2009,07,27,16,21,27.30
2009,07,27,16,22,27.30
2009,07,27,16,23,27.40
2009,07,27,16,24,27.40
2009,07,27,16,25,27.40
2009,07,27,16,26,27.40
2009,07,27,16,27,27.40
2009,07,27,16,28,27.40
2009,07,27,16,29,27.40
2009,07,27,16,30,27.50
2009,07,27,16,31,27.60
2009,07,27,16,32,27.70
2009,07,27,16,33,27.70
2009,07,27,16,34,27.70
2009,07,27,16,35,27.70
2009,07,27,16,36,27.70
2009,07,27,16,37,27.80
2009,07,27,16,38,27.80
2009,07,27,16,39,27.80
2009,07,27,16,40,27.80
2009,07,27,16,41,27.80
2009,07,27,16,42,27.90
2009,07,27,16,43,27.90
2009,07,27,16,44,28.00
2009,07,27,16,45,28.10
2009,07,27,16,46,28.10
2009,07,27,16,47,28.10
2009,07,27,16,48,28.00
2009,07,27,16,49,28.00
2009,07,27,16,50,27.90
2009,07,27,16,51,27.90
2009,07,27,16,52,27.80
2009,07,27,16,53,27.80
2009,07,27,16,54,27.90
2009,07,27,16,55,27.90
2009,07,27,16,56,27.90
2009,07,27,16,57,28.00
2009,07,27,16,58,28.00
2009,07,27,16,59,28.00
2009,07,27,17,00,27.90
2009,07,27,17,01,27.90
2009,07,27,17,02,27.90
2009,07,27,17,03,27.90
2009,07,27,17,04,27.90
2009,07,27,17,05,27.90
2009,07,27,17,06,27.90
2009,07,27,17,07,27.90
2009,07,27,17,08,27.90
2009,07,27,17,09,28.00
2009,07,27,17,10,28.10
2009,07,27,17,11,28.20
2009,07,27,17,12,28.30
2009,07,27,17,13,28.40
2009,07,27,17,14,28.50
2009,07,27,17,15,28.60
2009,07,27,17,16,28.60
2009,07,27,17,17,28.70
2009,07,27,17,18,28.70
2009,07,27,17,19,28.70